GPS BIIF-8 (PRN 03)

Last updated on Sun Nov 02 2025 00:03:24 GMT+0000 (Coordinated Universal Time)

1 40294U 14068A 25305.57532024 -.00000058 00000+0 00000+0 0 9993 2 40294 56.8287 39.7382 0061132 69.8396 290.8343 2.00562251 80643
UTC large
Height (km)
Speed (km/s)
/
Latitude / Longitude
Inclination (degrees)
Orbital Period (minutes)
Azimuth
Elevation
Range (km)
Doppler Factor

Next 0 passes for location: London (51.5072 / 0.1276)

Sorry there are no passes over London.